Snowfall_Accumulation
0.2 0.1 0.1 0.1 0.1 0.1 0.1 0.2 0.4 0.6 0.1 0.0 0.0 0.0 0.0 0.0 0.0 0.0 0.0 0.0 0.0 0.0 0.1 0.0 0.0 0.0 0.0 0.0 0.0 0.0 0.0 0.0 0.0 0.0 0.0 0.0 0.0 0.0
0.3 0.1 0.1 0.1 0.1 0.1 0.1 0.1 0.2 0.5 0.5 0.1 0.0 0.0 0.0 0.0 0.0 0.0 0.0 0.0 0.0 0.0 0.1 0.1 0.1 0.1 0.1 0.1 0.1 0.0 0.0 0.0 0.0 0.0 0.0 0.0 0.0 0.0
0.3 0.2 0.2 0.2 0.2 0.1 0.1 0.2 0.2 0.4 0.6 0.2 0.1 0.1 0.1 0.1 0.0 0.0 0.0 0.0 0.0 0.1 0.1 0.2 0.2 0.2 0.2 0.1 0.1 0.1 0.1 0.0 0.0 0.0 0.0 0.0 0.0 0.0
0.2 0.2 0.3 0.3 0.2 0.3 0.2 0.3 0.3 0.4 1.1 1.1 0.4 0.2 0.3 0.2 0.2 0.1 0.0 0.0 0.0 0.0 0.1 0.2 0.2 0.2 0.3 0.2 0.2 0.2 0.1 0.1 0.0 0.0 0.0 0.0 0.0 0.0
0.2 0.2 0.3 0.3 0.5 0.4 0.6 0.4 0.5 0.6 0.9 1.3 0.7 0.2 0.2 0.1 0.2 0.1 0.1 0.0 0.0 0.0 0.0 0.1 0.1 0.2 0.3 0.3 0.4 0.3 0.3 0.2 0.1 0.1 0.1 0.1 0.0 0.1
0.4 0.5 0.7 0.7 0.8 0.7 0.9 0.8 1.1 1.2 1.3 1.7 1.8 1.2 0.9 0.5 0.5 0.4 0.3 0.2 0.1 0.1 0.1 0.1 0.1 0.2 0.2 0.2 0.3 0.3 0.4 0.4 0.5 0.4 0.4 0.2 0.2 0.1
0.8 0.6 0.5 0.4 0.4 0.6 1.1 1.4 1.8 2.4 3.0 3.3 2.9 2.0 1.2 1.1 1.1 0.9 1.1 0.5 0.4 0.1 0.1 0.1 0.1 0.1 0.1 0.1 0.1 0.1 0.2 0.5 0.6 0.6 0.6 0.4 0.3 0.2
0.8 0.9 0.5 0.6 0.5 0.6 0.9 1.3 2.4 4.0 5.0 5.2 4.6 3.2 1.8 1.3 1.2 1.6 2.1 2.8 2.2 0.5 0.6 0.5 0.3 0.3 0.2 0.1 0.1 0.3 0.5 0.8 0.9 1.0 0.9 0.7 0.4 0.3
1.3 1.1 0.9 0.8 0.7 0.7 0.8 1.2 1.7 2.3 3.2 4.0 4.0 2.5 1.8 1.6 2.9 4.2 4.3 4.6 3.5 1.2 1.3 1.4 0.5 0.5 0.2 0.2 0.3 0.4 0.5 0.6 0.8 1.0 0.9 0.8 0.7 0.5
1.1 0.9 1.0 0.8 0.7 1.2 1.9 2.3 1.4 0.9 0.9 1.1 1.5 1.5 1.5 1.8 3.6 6.1 6.0 4.6 2.3 1.0 1.0 2.6 0.9 0.7 0.2 0.3 0.2 0.3 0.5 0.6 0.9 1.0 1.1 0.9 0.8 0.7
0.8 0.8 1.1 0.9 1.0 2.3 3.8 3.6 1.8 0.7 0.3 0.8 1.2 1.4 1.3 1.4 2.0 5.4 7.2 7.6 5.5 1.7 1.4 2.5 1.8 1.5 1.1 0.8 0.4 0.6 0.8 0.8 1.1 1.0 1.1 1.2 1.0 0.9
0.9 0.9 0.9 1.1 1.7 3.1 4.0 3.9 2.9 1.3 1.4 1.1 0.8 0.5 0.6 0.6 1.0 3.7 8.4 13.3 10.5 6.1 2.0 3.6 4.2 4.7 5.8 2.4 1.9 1.5 1.3 1.1 1.2 0.9 1.2 1.2 1.3 1.4
1.7 1.3 0.6 1.4 2.5 3.0 3.2 2.6 2.8 3.3 2.8 1.9 1.4 1.3 1.2 1.2 1.1 1.9 4.5 12.2 16.5 10.9 3.5 7.9 9.8 7.1 10.8 7.8 3.4 2.5 2.5 2.8 2.3 1.6 1.2 1.2 1.3 1.7
2.5 1.4 1.2 2.1 2.5 2.3 2.0 1.9 2.4 2.5 2.4 2.6 2.4 2.2 2.4 2.6 2.8 3.0 4.0 6.2 9.5 10.7 7.1 10.5 16.6 13.0 15.6 12.5 6.6 4.3 2.9 3.8 4.5 3.3 2.2 1.4 1.2 1.4
1.9 2.0 2.2 2.0 2.0 1.9 1.5 1.9 2.3 2.8 3.6 4.7 4.2 3.2 3.3 3.8 4.0 4.9 5.1 5.3 6.0 6.3 8.0 8.7 12.4 13.7 16.4 16.1 11.5 8.6 8.9 5.8 5.8 5.3 3.8 2.7 2.0 1.8
2.4 2.1 1.9 1.4 1.6 1.9 1.9 2.2 2.4 3.3 5.4 6.9 6.1 4.7 4.4 5.3 6.9 8.4 9.9 10.4 12.3 10.3 8.8 8.6 9.1 13.2 15.9 12.6 13.5 12.6 12.0 12.3 9.0 7.0 5.5 4.2 2.6 2.1
3.4 2.7 2.6 2.5 2.6 2.7 2.5 2.6 2.9 3.4 5.3 6.5 7.3 8.0 7.9 9.0 10.7 12.5 14.1 14.1 14.1 12.1 9.8 7.7 7.3 8.0 10.2 11.7 13.2 12.3 12.2 12.3 9.7 7.1 7.0 7.1 3.9 2.7
3.8 4.2 3.7 3.4 3.6 3.5 3.7 3.6 3.6 4.8 6.4 8.3 9.5 10.7 12.6 13.4 13.6 13.4 14.2 14.8 13.8 10.9 9.4 7.7 7.9 8.7 8.1 7.2 9.4 12.4 12.7 12.5 8.9 7.8 8.2 9.8 7.5 4.1
4.4 4.5 3.9 4.2 4.4 4.7 4.9 5.8 5.4 5.7 7.6 10.3 12.7 14.6 15.4 15.7 15.5 14.9 13.7 12.8 11.3 8.9 7.9 7.0 8.3 13.6 14.7 9.7 6.8 8.8 14.6 14.8 10.5 8.7 8.4 9.3 9.4 6.5
4.5 5.8 5.8 5.3 5.5 6.2 6.7 7.7 8.5 9.0 10.1 12.8 14.4 15.7 17.0 17.8 16.3 14.0 12.0 11.2 10.4 8.4 6.6 5.4 6.9 12.7 19.4 17.4 13.5 10.4 10.2 15.0 16.6 14.7 9.4 6.9 6.3 4.3
6.2 7.0 7.1 6.9 6.3 7.4 8.4 9.8 11.5 13.2 13.8 15.9 16.7 17.1 17.6 17.9 15.1 11.4 9.9 8.6 9.1 9.3 8.6 6.1 5.1 6.8 11.7 15.5 14.2 9.9 10.5 9.0 11.6 17.8 17.4 15.6 12.1 9.0
5.7 6.3 6.8 7.1 7.4 8.9 10.1 11.5 13.1 14.0 15.3 16.4 17.3 17.0 16.0 15.0 13.2 10.0 9.0 9.3 8.8 8.4 7.6 5.8 4.7 6.1 10.1 14.7 13.0 9.5 9.6 9.4 7.4 6.2 8.9 13.9 22.7 23.1
5.9 6.7 7.7 8.0 8.8 10.1 11.9 13.1 13.7 14.5 16.0 17.4 17.3 15.9 14.0 11.9 9.5 9.1 9.1 9.2 9.2 8.5 7.8 7.3 6.4 6.6 7.8 9.6 11.2 9.8 8.9 8.4 8.0 8.4 10.3 7.1 7.5 8.9